Change the Weather History Date:

Thursday, December 13, 2012

  Actual Average Record
Temperature  
Mean Temperature 62 °F -  
Max Temperature 69 °F 75 °F 84 °F (1991)
Min Temperature 55 °F 54 °F 25 °F (1962)
Degree Days  
Heating Degree Days 3    
Growing Degree Days 12 (Base 50)    
Moisture  
Dew Point 63 °F    
Average Humidity 92    
Maximum Humidity 100    
Minimum Humidity 78    
Precipitation  
Precipitation 0.00 in - - ()
Sea Level Pressure  
Sea Level Pressure 30.11 in    
Wind  
Wind Speed 7 mph (NNW)    
Max Wind Speed 16 mph    
Max Gust Speed 21 mph    
Visibility 7 miles    
Events Fog    
Averages and records for this station are not official NWS values.
T = Trace of Precipitation, MM = Missing Value Source: NWS Daily Summary

Daily Weather History Graph

Daily Weather History Graph

Search for Another Location

Airport or City:

Trip Planner

Search our weather history database for the weather conditions in past years. The results will help you decide how hot, cold, wet, or windy it might be!

Date:

Astronomy

Dec. 13, 2012 Rise Set
Actual Time 7:04 AM EST 5:31 PM EST
Civil Twilight 6:39 AM EST 5:56 PM EST
Nautical Twilight 6:10 AM EST 6:25 PM EST
Astronomical Twilight 5:41 AM EST 6:54 PM EST
Moon 7:13 AM EST (12/13) 6:09 PM EST (12/13)
Length of Visible Light 11h 17m
Length of Day
10h 26m
New Moon, 0% of the Moon is Illuminated
Dec 13
New Moon
Dec 20
First Quarter
Dec 28
Full
Jan 4
Last Quarter
Jan 11
New

Hourly Weather History & Observations

Time (EST) Temp. Dew Point Humidity Pressure Visibility Wind Dir Wind Speed Gust Speed Precip Events Conditions
12:15 AM 69.8 °F 69.8 °F 100% 30.07 in 4.0 mi SSW 3.5 mph - N/A   Scattered Clouds
12:35 AM 69.8 °F 69.8 °F 100% 30.06 in 4.0 mi Calm Calm - N/A   Scattered Clouds
12:55 AM 69.8 °F 69.8 °F 100% 30.06 in 4.0 mi Calm Calm - N/A   Overcast
1:15 AM 69.8 °F 69.8 °F 100% 30.06 in 2.5 mi Calm Calm - N/A   Overcast
1:35 AM 69.8 °F 69.8 °F 100% 30.06 in 0.8 mi SSW 5.8 mph - N/A   Overcast
1:55 AM 69.8 °F 69.8 °F 100% 30.05 in 0.5 mi SSW 5.8 mph - N/A Fog Fog
2:15 AM 69.8 °F 69.8 °F 100% 30.06 in 0.5 mi SSW 4.6 mph - N/A Fog Fog
2:35 AM 69.8 °F 69.8 °F 100% 30.05 in 0.5 mi SW 4.6 mph - N/A Fog Fog
2:55 AM 69.8 °F 69.8 °F 100% 30.06 in 0.5 mi WSW 5.8 mph - N/A Fog Fog
3:15 AM 69.8 °F 69.8 °F 100% 30.04 in 0.5 mi SW 4.6 mph - N/A Fog Fog
3:35 AM 69.8 °F 69.8 °F 100% 30.04 in 0.8 mi SW 4.6 mph - N/A   Overcast
3:55 AM 69.8 °F 69.8 °F 100% 30.04 in 0.8 mi WSW 6.9 mph - N/A   Overcast
4:15 AM 69.8 °F 69.8 °F 100% 30.04 in 1.0 mi West 5.8 mph - N/A   Overcast
4:35 AM 69.8 °F 69.8 °F 100% 30.04 in 0.8 mi West 4.6 mph - N/A   Overcast
4:55 AM 69.8 °F 69.8 °F 100% 30.04 in 1.2 mi West 3.5 mph - N/A   Overcast
5:15 AM 69.8 °F 69.8 °F 100% 30.04 in 2.0 mi West 5.8 mph - N/A   Overcast
5:35 AM 69.8 °F 69.8 °F 100% 30.05 in 5.0 mi West 4.6 mph - N/A   Overcast
5:55 AM 69.8 °F 69.8 °F 100% 30.06 in 5.0 mi West 3.5 mph - N/A   Overcast
6:15 AM 68.0 °F 68.0 °F 100% 30.06 in 5.0 mi NNW 6.9 mph - N/A   Overcast
6:35 AM 68.0 °F 68.0 °F 100% 30.07 in 5.0 mi NNW 9.2 mph - N/A   Overcast
6:55 AM 68.0 °F 66.2 °F 94% 30.08 in 5.0 mi NNW 9.2 mph - N/A   Overcast
7:15 AM 66.2 °F 66.2 °F 100% 30.09 in 5.0 mi NNW 9.2 mph - N/A   Overcast
7:35 AM 66.2 °F 64.4 °F 94% 30.09 in 7.0 mi NW 9.2 mph 18.4 mph N/A   Overcast
7:55 AM 66.2 °F 64.4 °F 94% 30.10 in 5.0 mi NNW 9.2 mph - N/A   Overcast
8:15 AM 66.2 °F 64.4 °F 94% 30.11 in 7.0 mi NNW 9.2 mph - N/A   Overcast
8:35 AM 64.4 °F 64.4 °F 100% 30.11 in 10.0 mi NNW 10.4 mph 16.1 mph N/A   Overcast
8:55 AM 64.4 °F 64.4 °F 100% 30.12 in 10.0 mi NNW 9.2 mph - N/A   Overcast
9:15 AM 66.2 °F 62.6 °F 88% 30.12 in 10.0 mi NNW 11.5 mph - N/A   Overcast
9:35 AM 66.2 °F 62.6 °F 88% 30.13 in 10.0 mi NNW 10.4 mph - N/A   Overcast
9:55 AM 64.4 °F 62.6 °F 94% 30.14 in 10.0 mi NW 11.5 mph - N/A   Overcast
10:15 AM 64.4 °F 62.6 °F 94% 30.15 in 10.0 mi NNW 11.5 mph 17.3 mph N/A   Overcast
10:35 AM 64.4 °F 60.8 °F 88% 30.15 in 10.0 mi NNW 9.2 mph - N/A   Overcast
10:55 AM 64.4 °F 62.6 °F 94% 30.15 in 10.0 mi NNW 9.2 mph - N/A   Overcast
11:15 AM 64.4 °F 62.6 °F 94% 30.16 in 10.0 mi North 10.4 mph - N/A   Overcast
11:35 AM 64.4 °F 62.6 °F 94% 30.15 in 10.0 mi North 9.2 mph - N/A   Overcast
11:55 AM 66.2 °F 60.8 °F 83% 30.15 in 10.0 mi North 12.7 mph 17.3 mph N/A   Overcast
12:15 PM 68.0 °F 60.8 °F 78% 30.14 in 10.0 mi North 11.5 mph - N/A   Overcast
12:35 PM 68.0 °F 62.6 °F 83% 30.14 in 10.0 mi North 8.1 mph - N/A   Overcast
12:55 PM 66.2 °F 60.8 °F 83% 30.14 in 10.0 mi North 8.1 mph - N/A   Overcast
1:15 PM 66.2 °F 62.6 °F 88% 30.13 in 10.0 mi North 8.1 mph - N/A   Overcast
1:35 PM 66.2 °F 60.8 °F 83% 30.12 in 10.0 mi North 9.2 mph - N/A   Overcast
1:55 PM 66.2 °F 60.8 °F 83% 30.12 in 10.0 mi NNW 11.5 mph 17.3 mph N/A   Overcast
2:15 PM 66.2 °F 60.8 °F 83% 30.12 in 10.0 mi North 11.5 mph 17.3 mph N/A   Overcast
2:35 PM 66.2 °F 59.0 °F 78% 30.12 in 10.0 mi North 16.1 mph 20.7 mph N/A   Overcast
2:55 PM 64.4 °F 59.0 °F 83% 30.12 in 10.0 mi NNW 12.7 mph 18.4 mph N/A   Overcast
3:15 PM 62.6 °F 59.0 °F 88% 30.12 in 10.0 mi North 10.4 mph - N/A   Overcast
3:35 PM 64.4 °F 59.0 °F 83% 30.12 in 10.0 mi North 11.5 mph 16.1 mph N/A   Overcast
3:55 PM 64.4 °F 59.0 °F 83% 30.12 in 10.0 mi North 9.2 mph - N/A   Overcast
4:15 PM 64.4 °F 59.0 °F 83% 30.12 in 10.0 mi North 11.5 mph - N/A   Overcast
4:35 PM 62.6 °F 59.0 °F 88% 30.12 in 10.0 mi North 9.2 mph - N/A   Overcast
4:55 PM 62.6 °F 59.0 °F 88% 30.12 in 10.0 mi North 11.5 mph - N/A   Overcast
5:15 PM 62.6 °F 59.0 °F 88% 30.12 in 10.0 mi North 10.4 mph - N/A   Overcast
5:55 PM 62.6 °F 57.2 °F 82% 30.13 in 10.0 mi North 10.4 mph - N/A   Overcast
6:35 PM 60.8 °F 57.2 °F 88% 30.13 in 10.0 mi North 9.2 mph - N/A   Mostly Cloudy
6:55 PM 60.8 °F 57.2 °F 88% 30.13 in 10.0 mi NNW 9.2 mph - N/A   Scattered Clouds
7:35 PM 59.0 °F 55.4 °F 88% 30.14 in 10.0 mi North 6.9 mph - N/A   Mostly Cloudy
8:15 PM 60.8 °F 57.2 °F 88% 30.14 in 10.0 mi North 9.2 mph - N/A   Overcast
8:35 PM 60.8 °F 57.2 °F 88% 30.15 in 10.0 mi North 9.2 mph - N/A   Overcast
9:15 PM 60.8 °F 55.4 °F 82% 30.16 in 10.0 mi North 10.4 mph 16.1 mph N/A   Overcast
9:35 PM 59.0 °F 55.4 °F 88% 30.16 in 10.0 mi NNW 10.4 mph - N/A   Mostly Cloudy
9:55 PM 59.0 °F 55.4 °F 88% 30.17 in 10.0 mi NNW 11.5 mph 16.1 mph N/A   Scattered Clouds
10:15 PM 57.2 °F 55.4 °F 94% 30.16 in 10.0 mi NNW 8.1 mph - N/A   Clear
10:35 PM 55.4 °F 55.4 °F 100% 30.16 in 10.0 mi NNW 10.4 mph - N/A   Clear
10:55 PM 55.4 °F 53.6 °F 94% 30.16 in 10.0 mi NNW 10.4 mph - N/A   Mostly Cloudy
11:15 PM 55.4 °F 53.6 °F 94% 30.16 in 10.0 mi NNW 9.2 mph - N/A   Mostly Cloudy
11:35 PM 55.4 °F 53.6 °F 94% 30.15 in 10.0 mi NNW 8.1 mph - N/A   Overcast
11:55 PM 55.4 °F 53.6 °F 94% 30.15 in 7.0 mi NNW 9.2 mph - N/A   Scattered Clouds